VJC330 VVTS-VVDN

Flight info

Callsign VJC330
Flight time 1h 2m
Altitude 35000
Route PATMA5P PATMA Q2 LATOM LATOM2K
Aircraft A321/M-SDE3FGHIRWY/LB1

Departure

Time 2026-05-04 07:14
Airport Tan Son Nhat International Airport (VVTS)

Arrival

Time 2026-05-04 08:16
Airport Da Nang International Airport (VVDN)
Time Latitude Longitude Altitude Speed Heading
2026-05-04 06:51 10.81325 106.66120 34 ft 0 kts 95°
2026-05-04 06:58 10.81325 106.66119 34 ft 0 kts 95°
2026-05-04 06:59 10.81325 106.66118 34 ft 0 kts 95°
2026-05-04 07:02 10.81326 106.66115 34 ft 2 kts 95°
2026-05-04 07:02 10.81327 106.66099 34 ft 2 kts 95°
2026-05-04 07:02 10.81329 106.66085 33 ft 2 kts 95°
2026-05-04 07:02 10.81330 106.66074 33 ft 0 kts 95°
2026-05-04 07:03 10.81330 106.66060 33 ft 2 kts 78°
2026-05-04 07:03 10.81325 106.66045 33 ft 2 kts 63°
2026-05-04 07:03 10.81317 106.66032 32 ft 2 kts 46°
2026-05-04 07:03 10.81305 106.66022 32 ft 2 kts 29°
2026-05-04 07:04 10.81291 106.66016 33 ft 2 kts 13°
2026-05-04 07:04 10.81283 106.66015 33 ft 1 kts
2026-05-04 07:04 10.81279 106.66015 33 ft 0 kts
2026-05-04 07:08 10.81512 106.66039 29 ft 13 kts
2026-05-04 07:09 10.81613 106.66049 29 ft 14 kts
2026-05-04 07:09 10.81723 106.66058 28 ft 16 kts
2026-05-04 07:09 10.81837 106.66071 29 ft 16 kts 20°
2026-05-04 07:09 10.81898 106.66168 29 ft 16 kts 70°
2026-05-04 07:10 10.81941 106.66282 29 ft 17 kts 68°
2026-05-04 07:10 10.81986 106.66400 29 ft 18 kts 69°
2026-05-04 07:12 10.82268 106.67004 35 ft 0 kts 337°
2026-05-04 07:12 10.82278 106.67000 35 ft 2 kts 336°
2026-05-04 07:12 10.82301 106.66988 35 ft 5 kts 331°
2026-05-04 07:12 10.82335 106.66960 34 ft 7 kts 328°
2026-05-04 07:13 10.82357 106.66924 34 ft 7 kts 255°
2026-05-04 07:13 10.82315 106.66802 32 ft 45 kts 250°
2026-05-04 07:13 10.82120 106.66276 30 ft 113 kts 249°
2026-05-04 07:14 10.80411 106.61719 1650 ft 185 kts 248°
2026-05-04 07:14 10.79958 106.60500 2034 ft 190 kts 247°
2026-05-04 07:15 10.79463 106.59193 2289 ft 203 kts 248°
2026-05-04 07:15 10.78940 106.57809 2558 ft 217 kts 248°
2026-05-04 07:15 10.78486 106.56300 2812 ft 232 kts 264°
2026-05-04 07:15 10.78868 106.54691 2994 ft 248 kts 307°
2026-05-04 07:16 10.80223 106.53595 3262 ft 257 kts 343°
2026-05-04 07:16 10.82032 106.53492 3591 ft 265 kts 12°
2026-05-04 07:16 10.83868 106.53813 4160 ft 270 kts
2026-05-04 07:16 10.85748 106.54022 4694 ft 272 kts
2026-05-04 07:17 10.87655 106.54206 5350 ft 273 kts
2026-05-04 07:17 10.89528 106.54383 6056 ft 272 kts
2026-05-04 07:17 10.91414 106.54563 6728 ft 273 kts
2026-05-04 07:17 10.93304 106.54745 7345 ft 275 kts
2026-05-04 07:18 10.95243 106.54943 7985 ft 277 kts 10°
2026-05-04 07:18 10.97044 106.55605 8588 ft 276 kts 35°
2026-05-04 07:18 10.98404 106.56966 9236 ft 277 kts 52°
2026-05-04 07:18 10.99555 106.58531 9818 ft 280 kts 54°
2026-05-04 07:19 11.00733 106.60154 10264 ft 289 kts 53°
2026-05-04 07:19 11.01963 106.61815 10524 ft 304 kts 53°
2026-05-04 07:19 11.03289 106.63575 10786 ft 319 kts 53°
2026-05-04 07:19 11.04681 106.65406 11083 ft 331 kts 53°
2026-05-04 07:20 11.06111 106.67278 11563 ft 336 kts 53°
2026-05-04 07:20 11.07546 106.69152 12062 ft 340 kts 53°
2026-05-04 07:20 11.09002 106.71051 12549 ft 343 kts 53°
2026-05-04 07:20 11.10476 106.72972 13028 ft 347 kts 53°
2026-05-04 07:22 11.21130 106.86880 16349 ft 364 kts 53°
2026-05-04 07:22 11.22693 106.88922 16790 ft 367 kts 53°
2026-05-04 07:23 11.24272 106.90986 17230 ft 369 kts 53°
2026-05-04 07:23 11.25858 106.93058 17652 ft 371 kts 53°
2026-05-04 07:23 11.27450 106.95141 18048 ft 374 kts 53°
2026-05-04 07:23 11.29066 106.97253 18443 ft 377 kts 53°
2026-05-04 07:24 11.30681 106.99366 18834 ft 379 kts 53°
2026-05-04 07:24 11.32331 107.01524 19214 ft 382 kts 53°
2026-05-04 07:24 11.33976 107.03650 19578 ft 385 kts 51°
2026-05-04 07:24 11.35789 107.05674 19939 ft 388 kts 46°
2026-05-04 07:25 11.37807 107.07530 20295 ft 392 kts 40°
2026-05-04 07:26 11.53490 107.19528 22638 ft 409 kts 38°
2026-05-04 07:27 11.55789 107.21282 22968 ft 411 kts 38°
2026-05-04 07:27 11.58086 107.23038 23294 ft 413 kts 38°
2026-05-04 07:27 11.60387 107.24797 23607 ft 415 kts 38°
2026-05-04 07:27 11.62729 107.26588 23914 ft 417 kts 38°
2026-05-04 07:28 11.65045 107.28361 24211 ft 420 kts 38°
2026-05-04 07:28 11.67425 107.30180 24501 ft 422 kts 38°
2026-05-04 07:28 11.69773 107.31977 24779 ft 424 kts 38°
2026-05-04 07:28 11.72143 107.33794 25069 ft 426 kts 38°
2026-05-04 07:29 11.74546 107.35634 25360 ft 428 kts 38°
2026-05-04 07:29 11.76934 107.37463 25630 ft 431 kts 38°
2026-05-04 07:29 11.79344 107.39310 25909 ft 433 kts 38°
2026-05-04 07:29 11.81769 107.41167 26190 ft 434 kts 38°
2026-05-04 07:30 11.84205 107.43034 26458 ft 436 kts 38°
2026-05-04 07:30 11.86633 107.44896 26742 ft 438 kts 38°
2026-05-04 07:30 11.89081 107.46773 27005 ft 440 kts 38°
2026-05-04 07:30 11.91556 107.48671 27261 ft 442 kts 37°
2026-05-04 07:31 11.94040 107.50576 27507 ft 444 kts 38°
2026-05-04 07:31 11.96507 107.52470 27764 ft 445 kts 37°
2026-05-04 07:33 12.14167 107.66034 29466 ft 458 kts 37°
2026-05-04 07:33 12.16740 107.68013 29757 ft 458 kts 37°
2026-05-04 07:33 12.19268 107.69957 30098 ft 457 kts 37°
2026-05-04 07:33 12.21817 107.71918 30441 ft 456 kts 37°
2026-05-04 07:34 12.24337 107.73859 30785 ft 455 kts 37°
2026-05-04 07:34 12.26902 107.75784 31102 ft 454 kts 34°
2026-05-04 07:34 12.29592 107.77459 31425 ft 453 kts 27°
2026-05-04 07:34 12.32442 107.78852 31757 ft 451 kts 21°
2026-05-04 07:35 12.35374 107.79926 32081 ft 449 kts 15°
2026-05-04 07:35 12.38402 107.80694 32400 ft 447 kts
2026-05-04 07:35 12.41487 107.81145 32740 ft 445 kts
2026-05-04 07:35 12.44571 107.81306 33101 ft 444 kts
2026-05-04 07:36 12.47673 107.81369 33447 ft 443 kts 359°
2026-05-04 07:36 12.50830 107.81416 33744 ft 444 kts 359°
2026-05-04 07:38 12.72619 107.81809 34889 ft 448 kts 359°
2026-05-04 07:38 12.75767 107.81871 34886 ft 448 kts 359°
2026-05-04 07:38 12.81989 107.81993 34875 ft 448 kts 359°
2026-05-04 07:39 12.88272 107.82117 34867 ft 448 kts 359°
2026-05-04 07:39 12.94536 107.82241 34862 ft 448 kts 359°
2026-05-04 07:40 13.00785 107.82365 34858 ft 448 kts 359°
2026-05-04 07:40 13.07062 107.82488 34862 ft 449 kts 359°
2026-05-04 07:41 13.13338 107.82609 34867 ft 449 kts 359°
2026-05-04 07:41 13.19598 107.82732 34865 ft 450 kts 359°
2026-05-04 07:42 13.25871 107.82855 34866 ft 450 kts 359°
2026-05-04 07:42 13.32163 107.82980 34873 ft 449 kts 359°
2026-05-04 07:43 13.38451 107.83112 34879 ft 449 kts 359°
2026-05-04 07:43 13.44715 107.83245 34885 ft 450 kts 359°
2026-05-04 07:44 13.51042 107.83377 34890 ft 451 kts 359°
2026-05-04 07:44 13.57334 107.83508 34901 ft 451 kts 359°
2026-05-04 07:45 13.63664 107.83639 34902 ft 451 kts 359°
2026-05-04 07:45 13.69966 107.83772 34909 ft 451 kts 359°
2026-05-04 07:46 13.76247 107.83901 34917 ft 451 kts 359°
2026-05-04 07:46 13.82566 107.84033 34923 ft 452 kts 359°
2026-05-04 07:47 13.88914 107.84164 34935 ft 452 kts 359°
2026-05-04 07:49 14.14246 107.84388 34974 ft 453 kts 358°
2026-05-04 07:49 14.20622 107.84387 34995 ft 452 kts 357°
2026-05-04 07:50 14.26953 107.84385 35019 ft 452 kts 358°
2026-05-04 07:50 14.33273 107.84388 35022 ft 453 kts 357°
2026-05-04 07:51 14.39620 107.84386 35026 ft 452 kts 357°
2026-05-04 07:51 14.45929 107.84386 35033 ft 452 kts 357°
2026-05-04 07:52 14.49059 107.84386 34840 ft 454 kts 357°
2026-05-04 07:52 14.52233 107.84386 34075 ft 456 kts 357°
2026-05-04 07:52 14.55437 107.84388 33354 ft 455 kts 358°
2026-05-04 07:52 14.58566 107.84385 32662 ft 454 kts 358°
2026-05-04 07:53 14.61731 107.84388 32015 ft 454 kts 358°
2026-05-04 07:54 14.83766 107.84399 27820 ft 437 kts 360°
2026-05-04 07:55 14.86830 107.84629 27347 ft 433 kts
2026-05-04 07:55 14.89798 107.85209 26887 ft 429 kts 13°
2026-05-04 07:55 14.92678 107.86116 26424 ft 426 kts 18°
2026-05-04 07:55 14.95454 107.87145 25993 ft 421 kts 19°
2026-05-04 07:56 14.98190 107.88188 25559 ft 417 kts 20°
2026-05-04 07:56 15.00907 107.89225 25118 ft 413 kts 19°
2026-05-04 07:56 15.03581 107.90240 24672 ft 409 kts 19°
2026-05-04 07:56 15.06257 107.91251 24215 ft 406 kts 20°
2026-05-04 07:57 15.08935 107.92260 23752 ft 404 kts 20°
2026-05-04 07:57 15.11546 107.93242 23294 ft 401 kts 20°
2026-05-04 07:57 15.14181 107.94233 22818 ft 399 kts 20°
2026-05-04 07:57 15.16835 107.95230 22325 ft 398 kts 20°
2026-05-04 07:58 15.19422 107.96204 21845 ft 396 kts 20°
2026-05-04 07:58 15.22014 107.97181 21361 ft 395 kts 20°
2026-05-04 07:58 15.24623 107.98164 20850 ft 393 kts 20°
2026-05-04 07:58 15.27185 107.99127 20374 ft 391 kts 20°
2026-05-04 07:59 15.29761 108.00096 19909 ft 389 kts 20°
2026-05-04 07:59 15.32314 108.01057 19443 ft 387 kts 20°
2026-05-04 07:59 15.34837 108.02006 18973 ft 385 kts 19°
2026-05-04 07:59 15.37360 108.02956 18513 ft 383 kts 19°
2026-05-04 08:00 15.39903 108.03868 18046 ft 381 kts 14°
2026-05-04 08:00 15.42487 108.04333 17586 ft 378 kts
2026-05-04 08:00 15.45109 108.04280 17122 ft 375 kts 353°
2026-05-04 08:02 15.62896 108.01647 14376 ft 347 kts 352°
2026-05-04 08:02 15.65243 108.01308 14227 ft 337 kts 352°
2026-05-04 08:02 15.67570 108.00970 14034 ft 327 kts 352°
2026-05-04 08:03 15.69799 108.00646 13899 ft 317 kts 352°
2026-05-04 08:03 15.71967 108.00383 13721 ft 308 kts 360°
2026-05-04 08:03 15.73977 108.00867 13536 ft 296 kts 31°
2026-05-04 08:03 15.75433 108.02327 13267 ft 289 kts 62°
2026-05-04 08:04 15.75954 108.04301 12957 ft 284 kts 86°
2026-05-04 08:04 15.76094 108.06333 12655 ft 281 kts 85°
2026-05-04 08:04 15.76276 108.08388 12273 ft 282 kts 88°
2026-05-04 08:04 15.75918 108.10363 11899 ft 281 kts 118°
2026-05-04 08:05 15.74641 108.11834 11572 ft 279 kts 147°
2026-05-04 08:05 15.72816 108.12509 11163 ft 280 kts 171°
2026-05-04 08:05 15.70893 108.12735 10830 ft 278 kts 172°
2026-05-04 08:05 15.68970 108.12979 10493 ft 277 kts 172°
2026-05-04 08:06 15.67050 108.13242 10132 ft 276 kts 171°
2026-05-04 08:06 15.65123 108.13518 9796 ft 275 kts 171°
2026-05-04 08:06 15.63250 108.13799 9454 ft 273 kts 167°
2026-05-04 08:06 15.61541 108.14617 9075 ft 268 kts 135°
2026-05-04 08:08 15.64087 108.25887 6760 ft 258 kts
2026-05-04 08:08 15.65883 108.25741 6427 ft 259 kts 351°
2026-05-04 08:10 15.79391 108.23428 4345 ft 237 kts 353°
2026-05-04 08:11 15.81036 108.23192 4109 ft 237 kts 353°
2026-05-04 08:11 15.84295 108.22731 3510 ft 229 kts 354°
2026-05-04 08:11 15.85862 108.22508 3215 ft 221 kts 354°
2026-05-04 08:12 15.87351 108.22295 2961 ft 213 kts 354°
2026-05-04 08:12 15.88795 108.22089 2778 ft 203 kts 354°
2026-05-04 08:12 15.90170 108.21892 2493 ft 198 kts 354°
2026-05-04 08:12 15.91538 108.21695 2214 ft 192 kts 354°
2026-05-04 08:13 15.92816 108.21510 1946 ft 179 kts 354°
2026-05-04 08:13 15.94008 108.21337 1740 ft 162 kts 354°
2026-05-04 08:13 15.95075 108.21183 1515 ft 149 kts 354°
2026-05-04 08:13 15.96099 108.21036 1341 ft 147 kts 354°
2026-05-04 08:14 15.97120 108.20888 1170 ft 147 kts 355°
2026-05-04 08:14 15.98141 108.20741 995 ft 146 kts 354°
2026-05-04 08:14 15.99140 108.20593 805 ft 146 kts 355°
2026-05-04 08:16 16.05307 108.19704 56 ft 70 kts 351°
2026-05-04 08:16 16.05638 108.19654 54 ft 31 kts 353°
2026-05-04 08:16 16.05730 108.19750 53 ft 20 kts 82°
2026-05-04 08:17 16.05748 108.19898 51 ft 21 kts 82°
2026-05-04 08:17 16.05702 108.19984 49 ft 8 kts 200°
2026-05-04 08:17 16.05649 108.19992 49 ft 8 kts 166°
2026-05-04 08:17 16.05588 108.20005 49 ft 9 kts 172°
2026-05-04 08:19 16.05409 108.20163 50 ft 0 kts 83°